Location: Christianberg
(48.9086°N, 14.0209°E)
Time: 22:01:43
(UTC+00:00)

X-37B - Pass Details

Date: 20 June 2021
Orbit: 383 x 392 km, 45.0° (Epoch: 01 July)

Event Time Altitude Azimuth Distance (km) Brightness Sun altitude
Exits shadow 02:01:00 - 267° (W) 1,968 3.7 -7.8°
Reaches altitude 10° 02:02:31 10° 256° (WSW) 1,406 2.9 -7.6°
Maximum altitude 02:05:11 25° 199° (SSW) 826 1.7 -7.3°
Drops below altitude 10° 02:07:51 10° 142° (SE) 1,406 3.3 -7.0°
Sets 02:10:07 0° 128° (SE) 2,259 4.5 -6.8°
